Regional Weather Roundup
Issued by NWS State College, PA

Home | Current Version | Previous Version | Graphics & Text | Print | Product List | Glossary Off
Versions: 1 2 3 4 5 6 7 8 9 10 11 12 13 14 15 16 17 18 19 20 21 22 23 24 25 26 27 28 29 30 31 32 33 34 35 36 37 38 39 40 41 42 43 44 45 46 47 48 49 50

000
ASUS41 KCTP 051810
RWRCTP

REGIONAL WEATHER ROUNDUP
NATIONAL WEATHER SERVICE STATE COLLEGE PA
200 PM EDT SUN JUL 05 2015

Note: "fair" indicates few or no clouds below 12,000 feet with no
significant weather and/or obstructions to visibility.

* = STATION THAT DOES NOT REPORT PRECIPITATION /E.G. RAIN...SNOW...ETC/
    THUNDER OR FOG.

PAZ002>004-007>009-013>016-020>023-029>032-051900-
WESTERN PENNSYLVANIA

CITY           SKY/WX    TMP DP  RH WIND       PRES   REMARKS
ERIE           MOSUNNY   76  54  46 N8        30.15S
MEADVILLE      MOSUNNY   76  56  49 VRB3      30.16F
FRANKLIN*      MOSUNNY   75  54  46 E6        30.18F
NEW CASTLE     FAIR      78  53  41 CALM      30.15F
BEAVER COUNTY  NOT AVBL
BUTLER*        MOSUNNY   75  55  50 CALM      30.17F
PITTSBURGH INT CLOUDY    80  58  46 N6        30.14F
PITTSBURGH     MOSUNNY   79  56  45 SE6       30.13F
INDIANA*       SUNNY     77  59  53 CALM      30.19F
LATROBE        MOSUNNY   77  63  61 NE7       30.15F
WASHINGTON CO* NOT AVBL
$$

PAZ004>006-010>012-017>019-024>028-033>037-041-042-045-046-049>053-051900-
CENTRAL PENNSYLVANIA

CITY           SKY/WX    TMP DP  RH WIND       PRES   REMARKS
BRADFORD       MOSUNNY   75  53  46 SE7       30.19F
DUBOIS         MOSUNNY   79  50  36 VRB3      30.18F
CLEARFIELD     MOSUNNY   73  58  59 CALM      30.19F
JOHNSTOWN      MOSUNNY   75  53  46 CALM      30.19F
ALTOONA        MOSUNNY   77  59  53 CALM      30.18F
STATE COLLEGE  SUNNY     73  64  73 CALM      30.18F
WILLIAMSPORT   MOSUNNY   77  59  53 SE5       30.14F
SELINSGROVE    MOSUNNY   75  62  64 CALM      30.17F
FT INDIANTOWN  MOSUNNY   76  64  67 VRB3      30.16F
CAPITAL CITY   PTSUNNY   77  64  64 E5        30.16S
HARRISBURG     CLOUDY    79  65  62 CALM      30.15S
YORK           MOSUNNY   78  66  66 N6        30.16S
$$

PAZ038>040-043-044-047-048-054-055-060>062-067>071-051900-
EASTERN PENNSYLVANIA

CITY           SKY/WX    TMP DP  RH WIND       PRES   REMARKS
SCRANTON       NOT AVBL
MOUNT POCONO   NOT AVBL
ALLENTOWN      MOSUNNY   79  61  53 CALM      30.15S
QUAKERTOWN*    PTCLDY    81  64  57 NW5       30.16S
READING        MOSUNNY   79  64  60 VRB3      30.14F
LANCASTER      PTSUNNY   77  65  66 CALM      30.15F
COATESVILLE    MOCLDY    77  64  65 CALM      30.17S
POTTSTOWN      MOSUNNY   78  66  66 S7        30.16F
BLUE BELL      MOSUNNY   81  66  61 CALM      30.14S
DOYLESTOWN     MOSUNNY   78  61  55 CALM      30.14F
WILLOW GROVE   NOT AVBL
NORTH PHILA    MOSUNNY   83  62  49 VRB5      30.15S
PHILADELPHIA   MOSUNNY   81  63  54 S7        30.14S
$$


USA.gov is the U.S. government's official web portal to all federal, state and local government web resources and services.